Location: Blairvadach
(56.2780°N, 6.9720°W)
Time: 19:19:29
(UTC+00:00)

ISS - Pass Details

Date: 30 October 2019
Orbit: 412 x 421 km, 51.6° (Epoch: 14 November)

Event Time Altitude Azimuth Distance (km) Brightness Sun altitude
Exits shadow 04:44:43 15° 153° (SSE) 1,251 -1.2 -23.3°
Maximum altitude 04:44:57 15° 148° (SSE) 1,247 -1.2 -23.3°
Drops below altitude 10° 04:46:56 10° 113° (ESE) 1,508 -0.2 -23.0°
Sets 04:49:41 0° 88° (E) 2,375 1.5 -22.7°
